Regional Weather Roundup
Issued by NWS Newport/Morehead, NC

Current Version | Previous Version | Graphics & Text | Print | Product List | Glossary Off
Versions: 1 2 3 4 5 6 7 8 9 10 11 12 13 14 15 16 17 18 19 20 21 22 23 24 25 26 27 28 29 30 31 32 33 34 35 36 37 38 39 40 41 42 43 44 45 46 47 48 49 50

000
ASUS42 KMHX 202010
RWRMHX
WEATHER ROUNDUP FOR EASTERN NORTH CAROLINA
NATIONAL WEATHER SERVICE NEWPORT/MOREHEAD CITY NC
400 PM EDT SAT SEP 20 2014

NOTE: "FAIR" INDICATES FEW OR NO CLOUDS BELOW 12,000 FEET
WITH NO SIGNIFICANT WEATHER AND/OR OBSTRUCTIONS TO VISIBILITY

NCZ015>017-031-032-045>047-102-103-202100-
NORTH COAST

CITY           SKY/WX    TMP DP  RH WIND       PRES   REMARKS
EDENTON        CLOUDY    75  71  85 NE6       30.07R
ELIZABETH CITY PTSUNNY   74  67  78 NE16G23   30.07F
KITTY HAWK     CLOUDY    74  69  86 NE10G17   30.04F
MANTEO         CLOUDY    73  69  87 NE15      30.05F

$$

NCZ045>047-081-094-103-104-202100-
CENTRAL COAST

CITY           SKY/WX    TMP DP  RH WIND       PRES   REMARKS
FRISCO         CLOUDY    73  72  96 NE9       30.02F
SWANQUARTER      N/A     75 N/A N/A NE13G21   30.00S

$$

NCZ095-097-098-100-101-202100-
SOUTHERN COAST

CITY           SKY/WX    TMP DP  RH WIND       PRES   REMARKS
BEAUFORT       CLOUDY    75  71  87 NE15G21   30.00F
CEDAR ISLAND     N/A     75 N/A N/A N16G23    30.06S
JACKSONVILLE   CLOUDY    76  69  79 N15       30.00F
NEWPORT        NOT AVBL
PINEY ISLAND   CLOUDY    78  70  76 NE20      30.00F
WILMINGTON     CLOUDY    76  69  79 NE13      29.99F


$$

NCZ011>013-027>030-043-044-078>080-089-090>093-098-202100-
COASTAL PLAIN

CITY           SKY/WX    TMP DP  RH WIND       PRES   REMARKS
AHOSKIE        MOSUNNY   78  65  64 N13       30.06F
CLINTON        PTSUNNY   79  66  64 NE7       30.03F
ELIZABETHTOWN  CLOUDY    77  65  65 NE3       30.02F
GOLDSBORO      PTSUNNY   78  69  73 N3        30.02F
GREENVILLE     PTSUNNY   79  68  69 N10       30.06F
HAVELOCK       CLOUDY    76  69  79 NE14      30.02F
KENANSVILLE    CLOUDY    77  63  61 NE7       30.03F
KINSTON        PTSUNNY   79  64  61 N12       30.04F
NEW BERN       CLOUDY    79  68  69 NE12      30.03F
RICHLANDS      CLOUDY    75  64  69 N8        30.02F
ROANOKE RAPIDS NOT AVBL
ROCKY MOUNT    MOSUNNY   81  59  47 NE15      30.05F
WASHINGTON     CLOUDY    77  68  73 NE10G20   30.04F
WHITEVILLE     CLOUDY    76  64  67 N8        30.00F

$$

AMZ130-135-150-152-154-156-158-170-250-252-270-ANZ085-086-088-633-658-670-202100-
MARINE OBSERVATIONS

STATION/POSITION TIME  TEMP    WIND        PRES    WAVE   SWELL
                       AIR SEA DIR/SP/G            HT/PER HT/PER
                 (UTC) (F)     (DEG/KT/KT) (MB)    (FT/S) (FT/S)
CHESAPEAKE LIGHT 1900   71      50/ 19/ 20 1019.8
BUOY 44014       2000   74 77   30/ 17/ 19 1017.5    8/ 9   5/ 9
DUCK             2000   72 74   40/ 19/ 23 1017.0
2E DUCK          2000                        N/A     7/ 9   2/11
OREGON INLET     2000   73 73   20/ 14/ 20 1017.0
BUOY 44095       2000      74                N/A     8/10   3/11
20E OREGON INLET NOT AVBL
HATTERAS CG      2000   74 73   30/ 12/ 15 1016.7
DIAMOND BUOY     2000   80      90/ 14/ 23 1015.7    7/ 9   7/ 9
CAPE LOOKOUT     1900   73      20/ 16/ 19 1015.8
BEAUFORT LAB     2000   74 75   20/ 14/ 16 1015.4
30 SE NEW RIVER  2000   76 83   30/ 21/ 25 1014.7    6/ 9   3/ 9
5 SE WRIGHTSVILL 1900   73 80   40/ 17/ 21   N/A
BUOY 41002       1928   76 82  190/ 19/ 25 1012.0    9/ 8
BUOY 41004       2000   76 82   30/ 17/ 21 1012.4    8/ 7   3/ 9

$$


USA.gov is the U.S. government's official web portal to all federal, state and local government web resources and services.